Temp
3 3 3 4 4 4 4 4 5 5 5 5 6 6 6 7 7 7 8 8 8 8 7 8 8 8 7 7 6 6 8 10 11 11 11 10 9 9 8 8 8 8 7 7 7
2 3 3 3 3 4 4 4 4 4 5 5 5 5 5 6 7 7 7 7 7 7 8 7 8 7 7 6 6 6 8 10 11 10 9 10 9 9 9 9 9 9 8 7 7
2 2 2 2 3 3 3 3 4 4 4 5 5 5 5 5 6 5 7 7 8 8 7 7 7 6 6 6 7 7 8 10 10 9 9 9 8 9 9 8 9 9 8 7 7
2 2 2 2 2 3 3 3 3 3 4 4 5 5 5 4 5 6 6 7 7 7 7 7 5 5 6 7 7 7 8 8 9 9 8 8 8 8 8 8 9 8 8 8 7
1 1 2 2 2 2 2 2 3 3 3 3 4 4 4 4 6 4 6 6 6 7 6 6 5 5 6 7 7 8 8 8 8 8 8 8 8 8 8 8 8 8 8 8 7
1 1 1 2 2 2 2 2 2 2 3 3 3 4 4 5 5 5 5 6 6 6 6 5 4 5 6 7 7 8 8 7 8 8 8 8 8 8 8 8 8 8 8 8 7
1 1 1 1 1 1 1 2 2 2 2 3 3 3 4 5 5 5 5 5 5 6 6 4 4 4 5 5 6 6 7 7 7 8 8 8 8 9 9 8 7 8 8 8 6
0 0 1 1 1 1 1 1 1 2 2 2 3 3 4 4 5 5 5 5 5 5 5 5 3 3 4 5 5 5 6 7 9 9 9 8 9 10 9 8 8 7 8 8 7
0 -0 -0 0 0 0 1 1 1 2 2 2 2 3 3 4 5 5 5 5 5 5 5 4 3 3 3 4 5 6 7 9 10 9 9 8 9 11 9 9 8 8 7 7 7
-0 -0 -1 -0 0 0 1 0 1 1 2 2 2 3 3 3 5 5 4 4 5 5 4 4 3 3 3 5 6 6 7 8 9 10 9 9 9 9 10 9 9 8 8 7 7
-0 -0 -1 -1 -0 0 0 -0 -0 -1 2 2 1 2 3 3 4 4 4 4 4 3 4 2 3 4 5 5 6 6 8 9 10 10 9 8 9 9 10 10 10 9 8 8 6
-1 -1 -1 -1 -1 -1 -1 -1 -1 -1 1 2 2 2 3 3 4 4 3 3 2 2 2 4 3 5 5 6 5 6 6 7 8 9 8 8 8 9 9 10 10 10 9 8 7
-2 -2 -1 -2 -2 -2 -2 -2 -2 -2 -1 2 2 3 3 3 4 5 3 3 2 2 3 4 5 5 5 5 5 5 5 6 7 8 8 7 8 9 9 9 10 9 9 9 7
-3 -2 -2 -2 -3 -3 -4 -3 -3 -3 -2 1 1 1 2 2 3 4 3 3 1 2 3 4 5 5 5 5 5 5 5 5 6 7 8 9 10 10 10 11 10 9 9 8 8
-4 -3 -4 -3 -4 -5 -4 -4 -4 -4 1 1 -1 1 1 1 -1 1 2 1 1 2 2 4 4 4 5 5 5 5 5 5 6 7 7 8 9 9 10 11 10 10 9 9 8
-5 -4 -4 -4 -5 -6 -5 -5 -5 -4 0 1 -0 -0 -1 -0 -0 -0 0 1 0 0 2 3 5 4 5 5 5 4 4 5 5 6 8 8 8 10 11 11 10 9 9 9 7
-7 -5 -5 -6 -7 -6 -6 -7 -6 -3 0 1 1 -0 -0 -0 -0 -0 0 -0 1 1 2 3 3 3 3 4 4 4 4 6 3 4 8 9 8 9 11 10 10 10 9 8 7
-10 -8 -7 -7 -7 -7 -7 -8 -5 -1 -0 -1 -1 -1 -0 -1 -0 -1 0 1 1 2 3 3 3 4 3 4 5 4 4 6 5 6 8 9 9 9 10 10 9 9 9 8 8
-11 -10 -10 -8 -7 -7 -9 -7 -5 -3 -1 -2 -2 -1 0 -1 -0 0 1 2 1 0 3 4 5 4 4 4 4 5 4 5 6 6 7 8 9 8 9 9 9 9 8 8 7
-11 -10 -10 -11 -8 -9 -10 -8 -5 -4 -5 -4 -3 -1 1 -0 -1 -0 1 0 -0 -1 -0 2 3 3 4 3 3 4 6 5 6 6 6 8 9 10 9 9 9 9 9 8 8
-11 -11 -10 -10 -10 -9 -9 -8 -6 -6 -6 -5 -3 -2 -1 -1 -1 -1 -0 -2 -2 -1 -1 0 1 3 2 3 4 3 4 5 6 6 8 8 9 9 8 8 8 9 8 8 8
-11 -11 -10 -10 -10 -10 -9 -8 -7 -7 -7 -6 -5 -5 -4 -3 -3 -2 -1 -1 -3 -3 -1 -1 0 2 3 3 2 3 5 5 5 7 7 7 8 7 7 7 7 7 8 7 7
-11 -11 -10 -10 -10 -9 -9 -8 -8 -7 -7 -6 -6 -5 -5 -5 -3 -3 -3 -4 -2 -3 -2 -2 0 2 3 3 2 3 4 4 5 5 5 7 7 7 7 6 6 6 7 7 7
-11 -11 -11 -10 -10 -9 -9 -8 -8 -8 -8 -7 -6 -6 -6 -5 -5 -4 -4 -4 -4 -4 -3 -2 -1 0 3 2 1 1 2 2 3 3 4 5 6 7 7 6 6 6 6 7 7
-12 -11 -11 -10 -10 -11 -10 -9 -8 -8 -8 -8 -7 -7 -6 -5 -5 -5 -4 -4 -5 -4 -4 -4 -2 -1 -1 -0 0 1 1 1 2 2 3 4 5 5 6 6 6 5 6 6 7
-12 -12 -11 -11 -10 -10 -10 -10 -9 -8 -8 -8 -7 -6 -6 -6 -5 -4 -5 -4 -4 -4 -4 -4 -3 -2 -1 -1 -1 -0 1 1 2 2 3 3 3 4 4 4 4 5 5 6 6
-12 -12 -11 -11 -10 -10 -9 -9 -9 -9 -8 -8 -8 -7 -7 -6 -6 -6 -6 -7 -6 -5 -5 -5 -4 -4 -2 -1 -0 -0 0 1 1 2 2 3 3 4 4 4 5 5 5 5 6
Height
3120 3119 3118 3116 3116 3116 3115 3115 3115 3114 3113 3113 3113 3113 3113 3113 3114 3114 3116 3115 3114 3114 3114 3116 3116 3116 3116 3117 3120 3121 3121 3117 3114 3113 3112 3113 3111 3110 3109 3109 3108 3108 3105 3103 3098
3116 3115 3112 3111 3110 3110 3109 3109 3109 3108 3108 3108 3108 3108 3106 3106 3108 3110 3110 3111 3110 3110 3111 3113 3113 3112 3113 3114 3118 3117 3115 3113 3113 3111 3110 3110 3109 3108 3108 3106 3105 3104 3103 3098 3095
3111 3110 3108 3107 3106 3105 3104 3103 3103 3102 3103 3102 3102 3103 3101 3101 3104 3103 3103 3104 3105 3106 3107 3108 3109 3109 3111 3113 3114 3114 3110 3111 3110 3109 3107 3106 3106 3105 3103 3102 3102 3101 3099 3097 3091
3106 3105 3104 3102 3101 3100 3097 3097 3097 3097 3096 3096 3096 3097 3096 3097 3104 3096 3098 3098 3099 3099 3101 3103 3106 3105 3107 3109 3111 3110 3108 3107 3106 3106 3104 3102 3101 3100 3099 3098 3099 3098 3093 3091 3088
3102 3099 3098 3098 3096 3095 3094 3092 3092 3092 3091 3090 3090 3090 3091 3090 3094 3090 3093 3095 3095 3095 3097 3099 3102 3103 3103 3106 3108 3105 3105 3103 3103 3101 3099 3098 3096 3095 3093 3094 3094 3092 3089 3088 3084
3096 3096 3095 3093 3092 3090 3089 3088 3087 3087 3086 3084 3085 3084 3085 3085 3087 3087 3087 3087 3091 3092 3093 3095 3100 3102 3102 3102 3102 3102 3101 3098 3097 3096 3095 3093 3091 3091 3089 3090 3089 3087 3085 3084 3081
3092 3090 3090 3089 3087 3085 3083 3082 3081 3081 3081 3080 3079 3078 3077 3083 3079 3080 3081 3081 3083 3085 3087 3092 3093 3097 3098 3097 3097 3096 3095 3093 3091 3091 3089 3090 3086 3084 3084 3085 3084 3083 3081 3080 3079
3087 3084 3082 3082 3081 3079 3078 3077 3075 3076 3075 3075 3074 3072 3070 3075 3074 3074 3074 3075 3076 3078 3081 3083 3086 3088 3090 3093 3092 3092 3091 3087 3085 3085 3085 3086 3080 3079 3078 3080 3081 3079 3077 3076 3074
3080 3078 3076 3075 3074 3073 3073 3072 3070 3069 3069 3068 3069 3067 3066 3067 3068 3066 3067 3068 3069 3071 3075 3077 3078 3081 3086 3087 3087 3087 3083 3081 3079 3080 3081 3080 3077 3077 3075 3075 3076 3076 3075 3073 3071
3070 3071 3069 3068 3067 3066 3066 3066 3064 3063 3063 3063 3062 3065 3062 3063 3061 3061 3062 3063 3064 3065 3068 3070 3074 3076 3077 3080 3074 3080 3079 3077 3077 3077 3074 3075 3073 3074 3074 3072 3072 3073 3073 3071 3068
3063 3063 3063 3062 3061 3061 3062 3061 3061 3057 3053 3057 3058 3055 3060 3057 3056 3057 3058 3058 3059 3060 3059 3064 3069 3062 3070 3072 3074 3076 3074 3071 3071 3073 3071 3071 3069 3069 3069 3069 3068 3068 3068 3068 3065
3055 3055 3056 3055 3054 3055 3055 3055 3054 3053 3045 3048 3048 3047 3051 3050 3048 3051 3053 3055 3056 3056 3058 3064 3055 3063 3067 3069 3070 3071 3070 3068 3069 3069 3068 3067 3064 3063 3063 3063 3063 3063 3064 3064 3063
3048 3048 3048 3048 3047 3048 3049 3049 3049 3047 3042 3036 3040 3039 3042 3044 3041 3045 3045 3046 3053 3054 3055 3054 3057 3057 3060 3062 3063 3063 3064 3065 3066 3065 3063 3064 3058 3056 3055 3055 3057 3058 3059 3060 3060
3041 3040 3041 3041 3043 3042 3044 3044 3045 3043 3041 3037 3031 3030 3031 3035 3034 3035 3036 3041 3046 3047 3051 3049 3052 3053 3053 3054 3058 3055 3060 3062 3062 3062 3059 3059 3050 3049 3049 3048 3050 3051 3052 3054 3056
3034 3034 3034 3034 3036 3039 3037 3041 3041 3043 3039 3031 3027 3026 3028 3032 3031 3029 3029 3031 3035 3043 3047 3041 3045 3046 3047 3048 3052 3051 3056 3057 3058 3056 3057 3054 3052 3044 3044 3044 3045 3046 3047 3048 3050
3025 3026 3027 3028 3029 3033 3034 3037 3039 3045 3030 3027 3025 3024 3027 3026 3028 3027 3027 3027 3034 3038 3039 3038 3041 3041 3041 3045 3047 3051 3052 3052 3054 3054 3047 3046 3047 3038 3037 3037 3039 3042 3042 3044 3046
3017 3017 3020 3021 3024 3026 3030 3033 3040 3031 3023 3022 3023 3024 3026 3025 3027 3026 3024 3026 3031 3032 3031 3034 3033 3036 3037 3039 3043 3046 3048 3047 3054 3049 3037 3038 3039 3036 3034 3036 3038 3039 3041 3041 3041
3009 3010 3011 3015 3018 3021 3025 3032 3030 3018 3019 3019 3022 3024 3024 3022 3024 3022 3024 3026 3027 3028 3027 3026 3029 3028 3031 3033 3036 3038 3041 3038 3039 3035 3032 3030 3027 3028 3030 3034 3035 3036 3038 3038 3038
3004 3004 3006 3008 3011 3014 3021 3024 3016 3018 3018 3018 3021 3020 3020 3020 3021 3019 3022 3024 3024 3025 3026 3021 3020 3021 3024 3029 3033 3034 3034 3037 3034 3034 3032 3026 3027 3027 3028 3031 3032 3034 3035 3036 3037
3000 3002 3002 3005 3005 3010 3016 3010 3014 3016 3014 3017 3019 3017 3015 3017 3019 3016 3020 3021 3022 3021 3022 3021 3019 3020 3021 3024 3025 3027 3030 3033 3032 3030 3031 3025 3022 3021 3023 3026 3030 3031 3032 3034 3034
2997 2998 2999 2999 3002 3005 3004 3006 3009 3011 3013 3017 3017 3016 3015 3014 3016 3015 3017 3019 3020 3020 3020 3020 3020 3019 3020 3019 3019 3022 3023 3026 3027 3027 3022 3021 3018 3017 3020 3025 3028 3029 3029 3031 3031
2993 2994 2994 2995 2998 2998 2999 3004 3007 3009 3011 3013 3014 3015 3015 3015 3014 3014 3015 3016 3015 3017 3019 3019 3018 3016 3016 3016 3015 3015 3018 3022 3023 3022 3020 3022 3021 3020 3021 3024 3026 3026 3029 3027 3028
2987 2990 2990 2991 2992 2994 2997 2999 3002 3005 3007 3010 3011 3012 3012 3012 3013 3012 3012 3011 3013 3016 3017 3017 3017 3015 3013 3016 3015 3015 3016 3017 3019 3020 3018 3018 3020 3018 3020 3022 3025 3025 3027 3027 3026
2985 2985 2986 2985 2986 2990 2993 2995 2997 3000 3003 3005 3007 3008 3008 3009 3010 3009 3010 3011 3010 3013 3012 3014 3016 3015 3010 3012 3014 3014 3015 3017 3018 3019 3018 3017 3018 3018 3020 3021 3021 3022 3023 3025 3026
2977 2978 2982 2982 2982 2985 2989 2990 2993 2995 2997 3000 3002 3003 3004 3005 3005 3005 3008 3010 3011 3011 3012 3014 3013 3014 3012 3010 3011 3011 3013 3014 3014 3016 3016 3016 3015 3016 3017 3019 3019 3017 3019 3020 3023
2971 2976 2979 2980 2982 2983 2984 2986 2988 2990 2994 2994 2996 2998 2999 3000 3003 3004 3006 3008 3008 3010 3010 3010 3011 3010 3009 3008 3007 3005 3006 3006 3007 3009 3010 3012 3011 3015 3014 3015 3015 3015 3014 3015 3018
2967 2972 2974 2975 2979 2980 2981 2983 2986 2987 2989 2991 2992 2995 2996 2997 2999 3000 3000 3000 3003 3006 3007 3008 3009 3010 3005 3003 3003 3002 2998 2998 2999 3002 3004 3003 3007 3008 3008 3007 3008 3010 3010 3011 3013
Wind_Speed
26 26 27 27 28 29 28 29 29 28 29 28 28 27 28 26 24 23 22 20 17 19 17 20 17 15 14 15 16 14 18 21 17 16 16 14 14 12 16 17 16 17 19 18 27
27 28 27 28 28 28 28 28 28 29 29 28 28 27 28 28 26 25 26 23 21 19 21 21 20 17 16 15 18 19 17 18 15 15 14 12 15 16 16 17 16 15 15 19 24
27 27 27 28 29 29 29 30 29 29 31 30 30 28 28 27 26 19 25 24 24 22 22 23 21 18 18 17 19 20 26 18 17 17 16 16 19 18 19 19 15 18 21 16 24
27 27 28 27 27 28 28 29 30 30 29 30 28 27 28 27 13 23 19 16 19 22 21 22 21 20 20 21 21 27 24 22 21 20 18 20 19 22 21 20 18 19 24 21 21
29 29 29 29 28 27 28 28 28 27 27 27 27 26 25 26 23 29 24 21 16 16 14 15 18 19 23 18 20 25 25 23 21 21 22 22 24 25 25 20 18 19 19 19 20
30 31 30 29 29 28 28 29 28 27 26 26 26 26 26 27 22 23 25 26 26 24 19 17 17 18 18 20 24 21 21 23 22 24 23 23 24 23 24 17 17 20 17 19 19
31 30 31 30 28 28 28 28 29 27 27 27 26 27 28 21 22 22 24 22 24 30 31 23 21 19 16 20 22 24 27 26 27 26 25 20 27 27 22 19 17 17 16 18 13
32 32 31 30 29 29 28 29 29 28 27 27 27 28 31 23 22 21 24 25 25 26 29 31 21 25 24 20 19 18 22 29 22 20 19 20 25 18 14 14 13 16 14 17 18
32 32 32 31 30 30 29 29 30 29 28 27 27 25 28 20 17 21 26 27 27 27 30 28 33 26 22 24 25 23 28 24 21 17 13 16 16 10 10 13 13 13 14 15 17
34 33 33 32 32 31 30 29 31 31 30 28 28 22 12 8 12 21 19 20 24 26 32 35 27 25 29 29 31 28 25 25 23 19 16 20 25 20 20 18 16 15 15 15 17
34 33 32 34 33 33 31 29 29 29 32 23 18 28 22 23 22 23 23 20 21 19 28 26 29 38 33 31 32 27 26 23 19 15 15 20 23 23 23 21 20 17 16 16 15
34 32 31 32 32 31 30 27 27 29 37 30 29 31 25 24 28 23 26 22 21 21 20 24 36 31 28 29 29 31 30 29 25 22 17 20 26 24 22 23 21 20 17 15 15
32 30 30 28 30 29 25 27 24 26 33 39 28 27 27 26 30 26 29 25 21 22 23 27 24 22 31 30 31 32 30 27 27 22 18 19 29 27 25 24 22 21 20 17 17
31 29 26 24 25 26 22 22 19 21 18 22 20 14 19 21 24 26 29 31 24 30 25 29 26 25 20 33 30 32 27 23 25 24 23 20 22 20 16 15 18 18 18 17 19
30 28 25 23 22 19 27 13 14 11 6 6 7 11 12 11 8 12 16 24 32 26 21 30 22 29 29 27 26 29 21 22 23 24 23 26 19 23 19 20 17 14 16 20 20
29 27 24 23 21 21 18 13 10 6 14 7 7 6 8 10 9 10 10 15 18 31 27 27 19 20 28 24 21 16 15 15 18 22 21 23 25 19 21 16 11 10 7 18 19
27 26 22 21 15 19 15 12 9 13 7 13 8 9 10 10 10 11 9 13 10 20 33 28 27 18 16 23 18 22 13 8 6 13 14 18 21 29 6 8 10 10 6 12 16
21 24 20 19 16 18 17 12 18 12 20 3 5 13 11 9 10 9 12 12 13 14 14 30 28 31 21 20 19 25 26 12 11 9 12 25 12 24 14 18 14 14 11 12 16
19 18 17 16 17 19 16 25 20 20 15 12 12 12 15 10 7 9 12 14 9 7 11 8 18 8 30 30 23 20 25 23 24 21 11 8 14 12 12 13 8 8 11 11 15
17 16 19 16 18 18 19 34 18 17 6 10 13 10 17 12 9 10 13 10 7 3 7 4 6 5 15 15 24 34 14 19 21 15 12 16 20 17 3 12 10 4 13 12 15
17 17 13 15 13 19 27 25 21 11 11 9 11 12 11 5 8 9 9 6 6 2 1 3 8 8 8 12 12 21 30 20 18 22 10 9 7 8 8 6 9 9 6 11 14
17 18 14 11 21 20 24 19 19 21 17 15 14 11 11 8 6 5 7 4 9 3 3 4 4 9 11 5 6 5 18 26 21 18 21 22 17 7 4 2 2 3 3 5 9
22 18 16 15 18 23 17 19 21 22 18 18 20 14 10 7 5 6 5 7 10 4 6 4 6 9 6 10 10 10 12 13 17 16 20 14 10 12 11 7 8 10 7 5 5
21 18 20 21 23 17 19 20 20 22 23 19 21 21 17 16 13 9 7 5 7 5 11 11 9 12 10 4 1 7 12 12 10 14 18 24 22 24 21 22 20 17 11 5 7
28 26 15 10 24 23 18 13 21 22 16 15 25 25 22 22 21 22 20 16 9 11 7 7 13 14 18 19 17 16 15 17 20 20 21 19 20 19 18 16 18 20 18 15 12
34 29 21 20 13 16 23 23 18 16 23 16 17 15 17 24 20 8 17 14 15 10 9 11 11 12 17 17 19 24 27 28 28 27 28 26 28 21 24 28 29 28 22 23 18
32 29 20 14 20 19 17 23 22 16 13 20 15 16 16 15 18 18 16 14 12 11 8 9 8 7 14 10 10 15 21 22 26 30 31 31 25 22 23 23 23 25 26 26 23
Wind_Direction
284 283 284 283 283 283 282 282 282 281 281 280 279 279 279 277 275 276 275 274 264 266 262 263 260 259 256 248 235 254 250 260 269 277 285 260 269 279 278 288 284 282 281 291 299
285 283 282 283 283 283 284 283 283 283 281 283 283 282 281 278 275 272 270 268 269 262 262 261 258 254 250 242 237 233 247 259 270 268 277 255 265 282 282 289 288 289 304 296 300
290 288 287 284 282 283 284 284 283 283 285 285 283 282 281 283 281 277 268 264 263 259 253 253 249 242 238 234 237 243 247 258 268 275 275 259 268 278 282 282 286 286 292 289 292
288 288 288 287 287 287 286 286 284 285 285 285 285 288 285 281 274 269 270 263 256 252 242 241 232 230 232 237 244 249 251 261 264 266 267 267 270 270 270 274 284 291 284 290 299
291 290 288 288 287 287 287 286 286 288 288 288 288 286 284 281 283 270 263 252 241 234 223 230 231 230 234 243 246 251 255 261 267 268 266 267 267 270 270 278 279 276 285 291 298
289 288 286 284 285 287 287 289 289 291 292 292 290 287 284 284 286 272 266 256 247 238 232 226 231 239 244 244 245 257 259 269 263 264 266 266 269 270 270 273 266 281 285 294 301
286 285 285 285 286 286 287 289 290 291 292 293 293 290 285 294 281 274 260 258 248 243 244 241 233 242 243 254 256 253 260 266 267 267 263 266 272 269 267 253 264 279 283 292 272
288 286 285 286 286 287 287 288 289 290 290 291 291 291 289 293 279 269 262 250 251 244 241 232 231 237 237 244 260 261 258 265 270 257 260 244 263 291 222 238 271 276 281 291 293
287 287 286 286 286 286 287 288 288 289 290 291 291 291 299 296 279 264 252 246 248 245 242 236 234 237 239 239 251 251 253 257 267 244 246 238 257 247 238 280 263 270 269 282 299
289 286 285 286 285 285 287 289 289 289 288 288 290 291 280 270 286 269 262 250 247 245 237 236 235 234 232 227 235 241 246 252 258 259 245 253 258 259 252 268 276 270 270 264 289
286 283 280 279 280 283 284 287 295 307 289 288 273 284 273 277 277 270 268 258 241 237 229 231 225 226 229 233 238 246 256 265 255 260 249 258 264 260 258 257 263 274 264 256 263
284 283 279 275 274 275 280 283 285 286 285 283 283 277 279 270 271 259 257 244 230 226 227 219 232 235 235 237 241 245 249 253 258 260 260 263 268 269 264 257 255 261 259 250 242
280 280 279 275 272 271 272 275 284 291 294 290 294 280 267 258 262 260 241 241 221 232 225 227 237 242 229 234 231 241 243 248 255 263 263 267 275 270 269 257 250 250 247 247 242
273 273 277 274 268 262 267 272 281 291 305 286 288 266 263 251 255 252 239 235 231 235 237 239 238 240 239 231 232 241 240 249 257 263 260 259 272 267 270 245 242 250 246 241 234
268 270 276 269 259 253 250 261 271 292 279 240 244 260 255 233 242 262 234 217 224 230 225 235 237 233 233 231 230 243 245 240 247 257 260 253 260 271 261 250 246 245 246 236 221
261 265 269 270 252 245 248 241 245 240 242 242 228 233 233 250 232 242 226 216 232 229 231 238 241 233 233 236 233 230 233 223 242 249 246 241 245 264 251 236 237 224 255 211 213
255 260 261 261 246 244 227 207 228 233 246 233 234 217 228 224 220 219 220 201 205 206 225 232 230 238 224 218 217 209 208 201 236 247 243 235 230 235 247 214 212 220 258 215 207
249 257 258 257 242 231 210 201 233 238 237 237 257 234 226 207 223 208 211 212 215 223 241 226 234 222 219 206 207 212 211 212 203 247 254 228 233 235 240 237 250 241 232 220 218
251 259 256 253 237 222 202 216 229 242 256 258 246 241 218 221 193 187 205 218 200 220 242 228 226 212 222 227 219 214 219 226 265 262 275 253 228 252 240 224 231 234 224 223 216
248 260 259 247 228 217 214 228 236 248 269 237 246 235 237 212 210 190 195 197 208 258 224 236 239 220 200 220 224 223 228 223 234 250 245 256 253 251 190 227 212 274 228 238 228
236 244 250 242 213 209 222 231 235 227 246 236 243 246 243 218 208 196 198 183 191 262 156 248 238 188 197 208 210 210 228 232 238 233 256 260 257 226 188 241 267 272 256 244 234
225 234 242 242 210 219 227 231 229 231 240 232 245 247 233 233 229 208 186 169 223 227 211 271 240 243 222 203 234 223 221 222 231 238 232 241 255 139 68 207 237 59 346 329 224
228 231 237 231 215 224 233 234 229 237 239 234 231 233 235 242 267 237 237 253 250 262 217 238 236 243 248 236 238 233 226 231 233 249 258 253 240 254 237 267 286 299 315 279 296
235 234 230 237 226 225 232 235 236 234 237 231 234 236 249 251 246 258 273 277 244 250 234 222 239 239 278 24 283 226 233 229 240 247 244 243 254 254 264 279 285 278 281 261 278
228 227 228 240 235 230 235 227 231 230 225 234 235 238 244 251 258 258 255 253 268 254 253 243 251 248 256 270 267 263 257 253 250 247 250 254 263 261 264 266 276 278 269 256 258
231 233 233 238 236 233 232 236 232 228 231 218 226 227 238 236 233 261 240 243 238 235 229 228 249 247 251 256 265 268 261 260 258 255 255 255 258 267 271 265 265 268 271 266 261
231 228 235 235 235 239 229 237 237 235 225 228 234 224 231 238 229 240 247 246 221 222 220 225 227 231 257 260 262 269 260 260 264 258 253 251 259 267 268 264 266 267 260 261 262